Previsão horária em Al Marj

Hoje, 21 Janeiro, Quinta-feira

Tempo Temperatura Precipitação Vento Pressão Humidade
00:00 +6°C° 0 mm 2 m/s 722 mmHg 73%
01:00 +6°C° 0 mm 2 m/s 721 mmHg 74%
02:00 +6°C° 0 mm 2 m/s 721 mmHg 75%
03:00 +5°C° 0 mm 2 m/s 721 mmHg 77%
04:00 +5°C° 0 mm 2 m/s 721 mmHg 79%
05:00 +4°C° 0 mm 3 m/s 721 mmHg 80%
06:00 +4°C° 0 mm 3 m/s 721 mmHg 81%
07:00 +4°C° 0 mm 3 m/s 721 mmHg 83%
08:00 +5°C° 0 mm 3 m/s 722 mmHg 76%
09:00 +6°C° 0 mm 4 m/s 722 mmHg 70%
10:00 +7°C° 0 mm 4 m/s 723 mmHg 63%
11:00 +8°C° 0 mm 4 m/s 722 mmHg 58%
12:00 +10°C° 0 mm 4 m/s 722 mmHg 53%
13:00 +11°C° 0 mm 4 m/s 721 mmHg 48%
14:00 +11°C° 0 mm 4 m/s 721 mmHg 47%
15:00 +10°C° 0 mm 3 m/s 721 mmHg 46%
16:00 +10°C° 0 mm 3 m/s 721 mmHg 45%
17:00 +10°C° 0 mm 3 m/s 721 mmHg 48%
18:00 +9°C° 0 mm 2 m/s 721 mmHg 51%
19:00 +8°C° 0 mm 2 m/s 721 mmHg 54%
20:00 +8°C° 0 mm 2 m/s 721 mmHg 55%
21:00 +7°C° 0 mm 2 m/s 721 mmHg 55%
22:00 +7°C° 0 mm 2 m/s 721 mmHg 56%
23:00 +7°C° 0 mm 3 m/s 720 mmHg 57%

Amanhã, 22 Janeiro, Sexta-feira

Tempo Temperatura Precipitação Vento Pressão Humidade
00:00 +7°C° 0 mm 3 m/s 720 mmHg 58%
01:00 +5°C° 0 mm 3 m/s 720 mmHg 59%
02:00 +5°C° 0 mm 3 m/s 719 mmHg 60%
03:00 +5°C° 0 mm 3 m/s 719 mmHg 61%
04:00 +5°C° 0 mm 3 m/s 719 mmHg 62%
05:00 +4°C° 0 mm 3 m/s 719 mmHg 63%
06:00 +4°C° 0 mm 3 m/s 719 mmHg 64%
07:00 +4°C° 0 mm 4 m/s 719 mmHg 64%
08:00 +5°C° 0 mm 4 m/s 719 mmHg 60%
09:00 +6°C° 0 mm 5 m/s 720 mmHg 56%
10:00 +7°C° 0 mm 5 m/s 720 mmHg 52%
11:00 +8°C° 0 mm 5 m/s 719 mmHg 49%
12:00 +9°C° 0 mm 5 m/s 719 mmHg 47%
13:00 +10°C° 0 mm 4 m/s 718 mmHg 44%
14:00 +10°C° 0 mm 4 m/s 718 mmHg 44%
15:00 +10°C° 0 mm 4 m/s 718 mmHg 44%
16:00 +10°C° 0 mm 4 m/s 718 mmHg 44%
17:00 +9°C° 0 mm 3 m/s 717 mmHg 47%
18:00 +9°C° 0 mm 3 m/s 717 mmHg 50%
19:00 +8°C° 0 mm 3 m/s 717 mmHg 54%
20:00 +7°C° 0 mm 3 m/s 717 mmHg 54%
21:00 +7°C° 0 mm 3 m/s 717 mmHg 54%
22:00 +7°C° 0 mm 3 m/s 717 mmHg 55%
23:00 +6°C° 0 mm 4 m/s 717 mmHg 55%

Depois de amanhã, 23 Janeiro, Sábado

Tempo Temperatura Precipitação Vento Pressão Humidade
00:00 +5°C° 0 mm 4 m/s 716 mmHg 55%
01:00 +5°C° 0 mm 4 m/s 716 mmHg 56%
02:00 +5°C° 0 mm 4 m/s 716 mmHg 57%
03:00 +5°C° 0 mm 4 m/s 715 mmHg 57%
04:00 +4°C° 0 mm 4 m/s 715 mmHg 58%
05:00 +4°C° 0 mm 4 m/s 715 mmHg 59%
06:00 +3°C° 0 mm 5 m/s 715 mmHg 60%
07:00 +3°C° 0 mm 5 m/s 715 mmHg 60%
08:00 +4°C° 0 mm 6 m/s 715 mmHg 57%
09:00 +5°C° 0 mm 7 m/s 716 mmHg 54%
10:00 +8°C° 0 mm 7 m/s 716 mmHg 51%
11:00 +9°C° 0 mm 8 m/s 715 mmHg 47%
12:00 +9°C° 0 mm 8 m/s 715 mmHg 44%
13:00 +10°C° 0 mm 8 m/s 714 mmHg 41%
14:00 +10°C° 0 mm 7 m/s 714 mmHg 41%
15:00 +10°C° 0 mm 7 m/s 713 mmHg 41%
16:00 +10°C° 0 mm 7 m/s 713 mmHg 41%
17:00 +9°C° 0 mm 6 m/s 713 mmHg 43%
18:00 +9°C° 0 mm 5 m/s 713 mmHg 45%
19:00 +8°C° 0 mm 5 m/s 713 mmHg 48%
20:00 +8°C° 0 mm 5 m/s 713 mmHg 47%
21:00 +8°C° 0 mm 5 m/s 713 mmHg 47%
22:00 +7°C° 0 mm 5 m/s 713 mmHg 46%
23:00 +7°C° 0 mm 4 m/s 713 mmHg 46%

24 Janeiro, Domingo

Tempo Temperatura Precipitação Vento Pressão Humidade
00:00 +7°C° 0 mm 4 m/s 713 mmHg 47%
01:00 +7°C° 0 mm 4 m/s 713 mmHg 47%
02:00 +6°C° 0 mm 4 m/s 713 mmHg 48%
03:00 +6°C° 0 mm 4 m/s 713 mmHg 48%
04:00 +7°C° 0 mm 3 m/s 712 mmHg 49%
05:00 +7°C° 0 mm 3 m/s 713 mmHg 51%
06:00 +5°C° 0 mm 3 m/s 713 mmHg 53%
07:00 +5°C° 0 mm 3 m/s 713 mmHg 54%
08:00 +8°C° 0 mm 3 m/s 713 mmHg 53%
09:00 +10°C° 0 mm 3 m/s 714 mmHg 51%
10:00 +12°C° 0 mm 3 m/s 714 mmHg 49%
11:00 +13°C° 0 mm 3 m/s 714 mmHg 47%
12:00 +14°C° 0 mm 4 m/s 714 mmHg 46%
13:00 +14°C° 0 mm 4 m/s 714 mmHg 44%
14:00 +14°C° 0 mm 4 m/s 713 mmHg 47%
15:00 +14°C° 0 mm 5 m/s 713 mmHg 50%
16:00 +14°C° 0 mm 5 m/s 713 mmHg 53%
17:00 +13°C° 0 mm 4 m/s 713 mmHg 61%
18:00 +12°C° 0 mm 4 m/s 713 mmHg 68%
19:00 +11°C° 0 mm 3 m/s 713 mmHg 76%
20:00 +10°C° 0 mm 3 m/s 713 mmHg 79%
21:00 +10°C° 0 mm 4 m/s 713 mmHg 81%
22:00 +10°C° 0 mm 4 m/s 713 mmHg 84%
23:00 +10°C° 0 mm 4 m/s 713 mmHg 83%

25 Janeiro, Segunda-feira

Tempo Temperatura Precipitação Vento Pressão Humidade
00:00 +10°C° 0 mm 4 m/s 713 mmHg 83%
01:00 +8°C° 0 mm 4 m/s 713 mmHg 83%
02:00 +8°C° 0 mm 4 m/s 713 mmHg 83%
03:00 +8°C° 0 mm 4 m/s 712 mmHg 83%
04:00 +8°C° 0 mm 4 m/s 712 mmHg 83%
05:00 +8°C° 0 mm 4 m/s 712 mmHg 83%
06:00 +8°C° 0 mm 4 m/s 713 mmHg 83%
07:00 +8°C° 0 mm 4 m/s 713 mmHg 83%
08:00 +11°C° 0 mm 4 m/s 714 mmHg 75%
09:00 +12°C° 0 mm 4 m/s 714 mmHg 67%
10:00 +14°C° 0 mm 5 m/s 715 mmHg 59%
11:00 +15°C° 0 mm 5 m/s 714 mmHg 56%
12:00 +15°C° 0 mm 5 m/s 714 mmHg 53%
13:00 +16°C° 0 mm 5 m/s 714 mmHg 50%
14:00 +16°C° 0 mm 5 m/s 714 mmHg 51%
15:00 +16°C° 0 mm 5 m/s 714 mmHg 51%
16:00 +15°C° 0 mm 5 m/s 714 mmHg 52%
17:00 +14°C° 0 mm 4 m/s 714 mmHg 61%
18:00 +13°C° 0 mm 4 m/s 714 mmHg 69%
19:00 +12°C° 0 mm 3 m/s 714 mmHg 78%
20:00 +12°C° 0 mm 3 m/s 714 mmHg 82%
21:00 +11°C° 0 mm 3 m/s 714 mmHg 85%
22:00 +11°C° 0 mm 3 m/s 714 mmHg 89%
23:00 +11°C° 0 mm 3 m/s 714 mmHg 90%

26 Janeiro, Terça-feira

Tempo Temperatura Precipitação Vento Pressão Humidade
00:00 +12°C° 0 mm 2 m/s 714 mmHg 91%
01:00 +12°C° 0 mm 2 m/s 714 mmHg 92%
02:00 +10°C° 0 mm 3 m/s 714 mmHg 93%
03:00 +10°C° 0 mm 3 m/s 714 mmHg 93%
04:00 +10°C° 0 mm 3 m/s 714 mmHg 93%
05:00 +10°C° 0 mm 3 m/s 714 mmHg 93%
06:00 +10°C° 0 mm 4 m/s 714 mmHg 93%
07:00 +10°C° 0 mm 4 m/s 715 mmHg 93%
08:00 +10°C° 0 mm 5 m/s 715 mmHg 84%
09:00 +12°C° 0 mm 5 m/s 716 mmHg 75%
10:00 +13°C° 0 mm 5 m/s 716 mmHg 65%
11:00 +13°C° 0 mm 6 m/s 716 mmHg 64%
12:00 +14°C° 0 mm 6 m/s 716 mmHg 62%
13:00 +14°C° 0 mm 6 m/s 716 mmHg 61%
14:00 +13°C° 0 mm 6 m/s 716 mmHg 62%
15:00 +11°C° 0 mm 6 m/s 716 mmHg 64%
16:00 +11°C° 0 mm 6 m/s 716 mmHg 66%
17:00 +10°C° 0 mm 6 m/s 716 mmHg 67%
18:00 +9°C° 0 mm 6 m/s 716 mmHg 69%
19:00 +9°C° 0 mm 6 m/s 716 mmHg 70%
20:00 +8°C° 0 mm 5 m/s 717 mmHg 71%
21:00 +8°C° 0 mm 5 m/s 717 mmHg 72%
22:00 +7°C° 0 mm 4 m/s 717 mmHg 72%
23:00 +7°C° 0 mm 4 m/s 717 mmHg 73%
Mostrar mais

Necessitamos do seu Consentimento

A Meteoprog e os seus Fornecedores de Serviços podem armazenar e aceder a dados pessoais como cookies, identificadores do dispositivo ou outras tecnologias semelhantes existentes no seu dispositivo e processar estes dados para personalizar conteúdos e anúncios, assim como funcionalidades nas redes sociais e análise de tráfego.

  • Armazenar e/ou aceder a informações no seu dispositivo

    Os cookies, identificadores do dispositivo ou outras informações podem ser armazenados ou acedidos no seu dispositivo, para os fins acima indicados.

  • Anúncios e conteúdos personalizados, medição de anúncios e conteúdos, dados sobre o público-alvo e desenvolvimento de produtos

    Os anúncios e os conteúdos podem ser personalizados com base num perfil. Podem ser adicionados dados adicionais para uma maior personalização dos anúncios e dos conteúdos. A eficácia dos anúncios e dos conteúdos pode ser medida. Podem ser obtidas informações sobre o público que visualizou os anúncios e os conteúdos. Estes dados podem ser usados para desenvolver ou melhorar sistemas, softwares ou a experiência do utilizador.

Ao clicar em "Eu concordo”, permitirá o uso de cookies, identificadores do dispositivo e web beacons mencionados ou outras tecnologias semelhantes. As configurações do navegador do seu dispositivo podem ser alteradas.

Para certos fins, podem ser invocados interesses legítimos ao invés de consentimento. Pode ler mais informação sobre este assunto na nossa Política de Privacidade e Cookies.